Home > Weather > San Bernardino > Past weeks

Flag for USA Weather for the Past 2 Weeks in San Bernardino, California, USA

Now
65 °F

Broken clouds.


Feels Like: 65 °F
Forecast: 49 / 68 °F
Wind: 8 mph from West

Location: Riverside Municipal Airport

Current Time: Apr 28, 2016 at 1:10:32 PM

Latest Report: Apr 28, 2016 at 11:53 AM


Visibility: 10 mi

Pressure: 29.82 "Hg

Humidity: 44%

Dew Point: 42 °F

Location of San BernardinoLocation

Historic Weather in San Bernardino — Graph

°F

San Bernardino Temperature Yesterday

Maximum temperature yesterday: 73 °F (at 1:53 PM)
Minimum temperature yesterday: 50 °F (at 5:53 AM)
Average temperature yesterday: 61 °F

High & Low Weather Summary for the Past Weeks

 TemperatureHumidityPressure
High92 °F (Apr 18, 2:53 PM)90% (Apr 14, 4:53 AM)30.08 "Hg (Apr 14, 4:53 AM)
Low47 °F (Apr 26, 4:53 AM)5% (Apr 16, 5:53 PM)29.70 "Hg (Apr 27, 11:53 PM)
Average67 °F41%29.89 "Hg
* Reported Apr 13 10:53 AM — Apr 28 10:53 AM, San Bernardino, Weather by CustomWeather, © 2016

Note: Actual official high and low records may vary slightly from our data, if they occured in-between our weather recording intervals... More about our weather records

Advertising

San Bernardino Weather History for the Previous 24 Hours

Scroll right to see more
 ConditionsComfort  
Time TempWeatherWind HumidityBarometerVisibility
10:53 AM
Thu, Apr 28
62 °FBroken clouds.5 mph52%29.82 "Hg10 mi
9:53 AM59 °FMostly cloudy.No wind56%29.81 "Hg10 mi
8:53 AM57 °FOvercast.No wind60%29.80 "Hg10 mi
7:53 AM56 °FOvercast.No wind62%29.79 "Hg10 mi
6:53 AM56 °FOvercast.No wind62%29.76 "Hg10 mi
5:53 AM55 °FOvercast.5 mph64%29.74 "Hg10 mi
4:53 AM55 °FOvercast.No wind64%29.73 "Hg10 mi
3:53 AM56 °FOvercast.3 mph60%29.73 "Hg10 mi
2:53 AM55 °FOvercast.3 mph64%29.72 "Hg10 mi
1:53 AM56 °FMostly cloudy.3 mph60%29.71 "Hg10 mi
12:53 AM56 °FPartly cloudy.No wind60%29.70 "Hg10 mi
11:53 PM
Wed, Apr 27
57 °FPassing clouds.9 mph62%29.70 "Hg10 mi
10:53 PM60 °FOvercast.6 mph56%29.72 "Hg10 mi
9:53 PM61 °FOvercast.7 mph56%29.72 "Hg10 mi
8:53 PM60 °FClear.10 mph60%29.72 "Hg10 mi
7:53 PM62 °FSunny.10 mph48%29.72 "Hg10 mi
6:53 PM65 °FScattered clouds.14 mph42%29.72 "Hg10 mi
5:53 PM68 °FSunny.15 mph38%29.72 "Hg10 mi
4:53 PM69 °FSunny.21 mph44%29.73 "Hg10 mi
3:53 PM72 °FBroken clouds.20 mph41%29.74 "Hg10 mi
2:53 PM72 °FSunny.16 mph40%29.76 "Hg10 mi
1:53 PM73 °FPassing clouds.N/A36%29.77 "Hg10 mi
Weather by CustomWeather, © 2016

See weather overviewHow to use our weather pages